W5CGC Weather Reports


Display with metric or nautical units.
time (UTC)temp
F
wind
direction
speed
MPH
gust
MPH
rain 1hr
in
rain 24hr
in
rain mn
in
humidity
%
barometer
mb
20210619121604 70 208 0.0 0.0 0.00 0.00 0.00 73 1010.1
20210619120043 69 208 0.0 0.0 0.00 0.00 0.00 74 1009.9
20210619114551 69 208 0.0 1.0 0.00 0.00 0.00 73 1009.7
20210619113041 69 208 0.0 2.0 0.00 0.00 0.00 73 1009.7
20210619111540 68 204 0.0 0.0 0.00 0.00 0.00 74 1009.4
20210619110122 68 210 0.0 0.0 0.00 0.00 0.00 71 1009.5
20210619104540 69 210 0.0 0.0 0.00 0.00 0.00 70 1009.4
20210619103022 70 210 0.0 0.0 0.00 0.00 0.00 68 1009.6
20210619101524 71 210 0.0 2.0 0.00 0.00 0.00 68 1009.4
20210619100032 71 201 0.0 0.0 0.00 0.00 0.00 67 1009.5
20210619094539 71 201 0.0 1.0 0.00 0.00 0.00 68 1009.5
20210619093018 71 217 0.0 1.0 0.00 0.00 0.00 68 1009.7
20210619091557 71 217 0.0 0.0 0.00 0.00 0.00 68 1009.8
20210619090017 71 217 0.0 1.0 0.00 0.00 0.00 67 1009.8
20210619084517 71 218 0.0 0.0 0.00 0.00 0.00 68 1009.9
20210619083045 70 225 0.0 0.0 0.00 0.00 0.00 69 1009.9
20210619081514 70 225 0.0 0.0 0.00 0.00 0.00 70 1010.1
20210619080007 71 225 0.0 0.0 0.00 0.00 0.00 69 1010.2
20210619074510 71 225 0.0 1.0 0.00 0.00 0.00 70 1010.2
20210619073005 71 227 0.0 0.0 0.00 0.00 0.00 67 1010.5
20210619071634 72 226 0.0 0.0 0.00 0.00 0.00 66 1010.6
20210619070134 72 226 0.0 0.0 0.00 0.00 0.00 65 1010.8
20210619064721 73 226 0.0 0.0 0.00 0.00 0.00 63 1011.0
20210619063130 74 227 0.0 0.0 0.00 0.00 0.00 62 1011.1
20210619061708 75 226 0.0 1.0 0.00 0.00 0.00 60 1011.2
20210619060138 76 229 0.0 0.0 0.00 0.00 0.00 58 1011.2
20210619054601 77 229 0.0 1.0 0.00 0.00 0.00 57 1011.4
20210619053103 77 220 0.0 1.0 0.00 0.00 0.00 56 1011.3
20210619051607 77 248 0.0 1.0 0.00 0.00 0.00 55 1011.3
20210619050105 77 252 0.0 1.0 0.00 0.00 0.00 55 1011.3
20210619044621 78 252 0.0 1.0 0.00 0.00 0.00 55 1011.3
20210619043049 78 233 0.0 1.0 0.00 0.00 0.00 54 1011.2
20210619041539 78 240 0.0 0.0 0.00 0.00 0.00 55 1011.1
20210619040129 79 235 0.0 0.0 0.00 0.00 0.00 55 1011.1
20210619034607 79 237 0.0 1.0 0.00 0.00 0.00 56 1011.1
20210619033105 79 238 0.0 1.0 0.00 0.00 0.00 55 1011.0
20210619031608 79 223 0.0 2.0 0.00 0.00 0.00 56 1010.9
20210619030054 79 218 0.0 0.0 0.00 0.00 0.00 56 1010.7
20210619024543 79 218 0.0 1.0 0.00 0.00 0.00 56 1010.6
20210619023120 80 218 0.0 0.0 0.00 0.00 0.00 54 1010.3
20210619021538 81 218 0.0 0.0 0.00 0.00 0.00 53 1010.2
20210619020038 82 218 0.0 1.0 0.00 0.00 0.00 51 1010.2
20210619014601 83 217 0.0 2.0 0.00 0.00 0.00 51 1010.2
20210619013036 83 250 0.0 1.0 0.00 0.00 0.00 50 1010.1
20210619011540 85 203 0.0 0.0 0.00 0.00 0.00 50 1009.9
20210619010108 86 146 0.0 3.0 0.00 0.00 0.00 47 1009.8
20210619004546 87 69 0.0 2.0 0.00 0.00 0.00 47 1009.6
20210619003111 88 65 0.0 1.0 0.00 0.00 0.00 46 1009.5
20210619001531 90 63 0.0 1.0 0.00 0.00 0.00 44 1009.4
20210619000034 92 75 0.0 3.0 0.00 0.00 0.00 40 1009.3
20210618234653 92 75 0.0 2.0 0.00 0.00 0.00 40 1009.5
20210618233023 94 73 1.0 4.0 0.00 0.00 0.00 39 1009.5
20210618231545 93 93 0.0 3.0 0.00 0.00 0.00 39 1009.6
20210618230026 93 53 0.0 2.0 0.00 0.00 0.00 41 1009.7
20210618224528 94 80 0.0 2.0 0.00 0.00 0.00 38 1009.7
20210618223040 94 58 0.0 2.0 0.00 0.00 0.00 38 1009.8
20210618221526 95 50 1.0 2.0 0.00 0.00 0.00 39 1009.7
20210618220038 94 51 1.0 3.0 0.00 0.00 0.00 41 1009.8
20210618214540 94 188 0.0 3.0 0.00 0.00 0.00 39 1009.9
20210618213027 95 153 1.0 3.0 0.00 0.00 0.00 40 1009.9
20210618211512 94 81 0.0 4.0 0.00 0.00 0.00 40 1010.0
20210618210017 94 63 1.0 3.0 0.00 0.00 0.00 39 1010.1
20210618204511 94 80 0.0 3.0 0.00 0.00 0.00 40 1010.3
20210618203004 93 60 1.0 3.0 0.00 0.00 0.00 40 1010.4
20210618201511 93 85 0.0 3.0 0.00 0.00 0.00 40 1010.6
20210618200011 92 27 0.0 3.0 0.00 0.00 0.00 42 1010.7
20210618194756 94 72 1.0 4.0 0.00 0.00 0.00 37 1010.8
20210618193250 94 84 0.0 4.0 0.00 0.00 0.00 41 1011.0
20210618191648 94 56 0.0 2.0 0.00 0.00 0.00 39 1011.2
20210618190130 94 27 0.0 4.0 0.00 0.00 0.00 41 1011.4
20210618184746 93 82 1.0 3.0 0.00 0.00 0.00 41 1011.7
20210618183129 92 88 1.0 4.0 0.00 0.00 0.00 43 1011.9
20210618181609 92 136 1.0 3.0 0.00 0.00 0.00 44 1012.0
20210618180114 92 321 0.0 2.0 0.00 0.00 0.00 44 1012.2
20210618174648 93 64 1.0 3.0 0.00 0.00 0.00 43 1012.3
20210618173210 93 179 0.0 4.0 0.00 0.00 0.00 40 1012.4
20210618171636 94 174 0.0 3.0 0.00 0.00 0.00 41 1012.5
20210618170145 94 62 0.0 2.0 0.00 0.00 0.00 40 1012.6
20210618164612 93 123 0.0 2.0 0.00 0.00 0.00 41 1012.6
20210618163122 92 200 0.0 3.0 0.00 0.00 0.00 44 1012.6
20210618161551 91 231 0.0 5.0 0.00 0.00 0.00 46 1012.7
20210618160057 90 174 2.0 5.0 0.00 0.00 0.00 45 1012.7
20210618154634 89 212 0.0 5.0 0.00 0.00 0.00 47 1012.8
20210618153101 89 149 0.0 2.0 0.00 0.00 0.00 48 1012.9
20210618151537 87 149 0.0 5.0 0.00 0.00 0.00 50 1013.0
20210618150039 86 162 2.0 6.0 0.00 0.00 0.00 50 1013.2
20210618144556 85 189 2.0 6.0 0.00 0.00 0.00 51 1013.3
20210618143013 83 169 1.0 7.0 0.00 0.00 0.00 56 1013.2
20210618141543 82 195 1.0 5.0 0.00 0.00 0.00 58 1013.2
20210618140014 81 267 1.0 6.0 0.00 0.00 0.00 58 1013.2
20210618134526 81 188 1.0 7.0 0.00 0.00 0.00 58 1013.2
20210618133006 80 179 3.0 7.0 0.00 0.00 0.00 60 1013.1
20210618130125 79 173 0.0 3.0 0.00 0.00 0.00 64 1012.9
20210618124738 78 210 1.0 3.0 0.00 0.00 0.00 65 1013.0
20210618123146 78 208 0.0 5.0 0.00 0.00 0.00 66 1012.9